| time (UTC) | temp F | wind direction | speed MPH | gust MPH | rain 1hr in | rain 24hr in | rain mn in | humidity % | barometer mb |
| 20260507154540 | 56 | 273 | 0.0 | 2.0 | 0.00 | 0.00 | 0.00 | 48 | 1015.4 |
| 20260507153038 | 55 | 290 | 0.0 | 2.0 | 0.00 | 0.00 | 0.00 | 50 | 1015.4 |
| 20260507151530 | 55 | 269 | 0.0 | 1.0 | 0.00 | 0.00 | 0.00 | 49 | 1015.3 |
| 20260507150029 | 54 | 282 | 0.0 | 0.0 | 0.00 | 0.00 | 0.00 | 47 | 1015.2 |
| 20260507144525 | 54 | 262 | 0.0 | 1.0 | 0.00 | 0.00 | 0.00 | 53 | 1015.3 |
| 20260507143023 | 53 | 284 | 0.0 | 2.0 | 0.00 | 0.00 | 0.00 | 51 | 1015.2 |
| 20260507141521 | 53 | 294 | 0.0 | 2.0 | 0.00 | 0.00 | 0.00 | 52 | 1015.3 |
| 20260507140021 | 53 | 275 | 0.0 | 1.0 | 0.00 | 0.00 | 0.00 | 55 | 1015.3 |
| 20260507134521 | 52 | 314 | 0.0 | 1.0 | 0.00 | 0.00 | 0.00 | 56 | 1015.3 |
| 20260507133018 | 52 | 297 | 0.0 | 1.0 | 0.00 | 0.00 | 0.00 | 56 | 1015.3 |
| 20260507131513 | 51 | 281 | 0.0 | 2.0 | 0.00 | 0.00 | 0.00 | 59 | 1015.4 |
| 20260507130011 | 51 | 302 | 0.0 | 1.0 | 0.00 | 0.00 | 0.00 | 61 | 1015.5 |
| 20260507124510 | 50 | 293 | 0.0 | 0.0 | 0.00 | 0.00 | 0.00 | 66 | 1015.5 |
| 20260507123007 | 49 | 293 | 0.0 | 1.0 | 0.00 | 0.00 | 0.00 | 69 | 1015.5 |
| 20260507121503 | 48 | 110 | 0.0 | 1.0 | 0.00 | 0.00 | 0.00 | 76 | 1015.5 |
| 20260507120002 | 48 | 110 | 0.0 | 0.0 | 0.00 | 0.00 | 0.00 | 77 | 1015.3 |
| 20260507114605 | 46 | 110 | 0.0 | 0.0 | 0.00 | 0.00 | 0.00 | 85 | 1015.4 |
| 20260507113054 | 44 | 62 | 0.0 | 0.0 | 0.00 | 0.00 | 0.00 | 95 | 1015.5 |
| 20260507111553 | 39 | 63 | 0.0 | 0.0 | 0.00 | 0.00 | 0.00 | 96 | 1015.3 |
| 20260507110051 | 38 | 63 | 0.0 | 0.0 | 0.00 | 0.00 | 0.00 | 96 | 1015.1 |
| 20260507104549 | 38 | 63 | 0.0 | 0.0 | 0.00 | 0.00 | 0.00 | 96 | 1014.9 |
| 20260507103050 | 38 | 63 | 0.0 | 0.0 | 0.00 | 0.00 | 0.00 | 96 | 1014.9 |
| 20260507101549 | 38 | 62 | 0.0 | 0.0 | 0.00 | 0.00 | 0.00 | 96 | 1014.9 |
| 20260507100046 | 38 | 63 | 0.0 | 0.0 | 0.00 | 0.00 | 0.00 | 96 | 1014.8 |
| 20260507094547 | 39 | 62 | 0.0 | 0.0 | 0.00 | 0.00 | 0.00 | 96 | 1014.8 |
| 20260507093043 | 39 | 62 | 0.0 | 0.0 | 0.00 | 0.00 | 0.00 | 96 | 1014.8 |
| 20260507091542 | 39 | 63 | 0.0 | 0.0 | 0.00 | 0.00 | 0.00 | 96 | 1014.6 |
| 20260507090043 | 39 | 63 | 0.0 | 0.0 | 0.00 | 0.00 | 0.00 | 96 | 1014.6 |
| 20260507084541 | 39 | 62 | 0.0 | 0.0 | 0.00 | 0.00 | 0.00 | 96 | 1014.5 |
| 20260507083047 | 40 | 63 | 0.0 | 0.0 | 0.00 | 0.00 | 0.00 | 96 | 1014.5 |
| 20260507081537 | 40 | 62 | 0.0 | 0.0 | 0.00 | 0.00 | 0.00 | 95 | 1014.4 |
| 20260507080037 | 40 | 63 | 0.0 | 0.0 | 0.00 | 0.00 | 0.00 | 95 | 1014.3 |
| 20260507074540 | 41 | 63 | 0.0 | 0.0 | 0.00 | 0.00 | 0.00 | 95 | 1014.4 |
| 20260507073033 | 41 | 62 | 0.0 | 0.0 | 0.00 | 0.00 | 0.00 | 95 | 1014.4 |
| 20260507071548 | 41 | 62 | 0.0 | 0.0 | 0.00 | 0.00 | 0.00 | 95 | 1014.4 |
| 20260507070034 | 42 | 62 | 0.0 | 0.0 | 0.00 | 0.00 | 0.00 | 95 | 1014.3 |
| 20260507064528 | 42 | 63 | 0.0 | 0.0 | 0.00 | 0.00 | 0.00 | 95 | 1014.5 |
| 20260507063029 | 42 | 63 | 0.0 | 0.0 | 0.00 | 0.00 | 0.00 | 94 | 1014.5 |
| 20260507061525 | 42 | 63 | 0.0 | 0.0 | 0.00 | 0.00 | 0.00 | 94 | 1014.6 |
| 20260507060029 | 43 | 63 | 0.0 | 0.0 | 0.00 | 0.00 | 0.00 | 94 | 1014.6 |
| 20260507054521 | 43 | 63 | 0.0 | 0.0 | 0.00 | 0.00 | 0.00 | 94 | 1014.6 |
| 20260507053020 | 44 | 63 | 0.0 | 0.0 | 0.00 | 0.00 | 0.00 | 94 | 1014.6 |
| 20260507051518 | 44 | 62 | 0.0 | 0.0 | 0.00 | 0.00 | 0.00 | 94 | 1014.8 |
| 20260507050016 | 45 | 63 | 0.0 | 0.0 | 0.00 | 0.00 | 0.00 | 94 | 1014.9 |
| 20260507044514 | 44 | 63 | 0.0 | 0.0 | 0.00 | 0.00 | 0.00 | 93 | 1014.8 |
| 20260507043013 | 44 | 63 | 0.0 | 0.0 | 0.00 | 0.00 | 0.00 | 92 | 1014.7 |
| 20260507041511 | 45 | 63 | 0.0 | 0.0 | 0.00 | 0.00 | 0.00 | 92 | 1014.7 |
| 20260507040010 | 45 | 62 | 0.0 | 0.0 | 0.00 | 0.00 | 0.00 | 91 | 1014.5 |
| 20260507034506 | 45 | 62 | 0.0 | 0.0 | 0.00 | 0.00 | 0.00 | 91 | 1014.5 |
| 20260507033006 | 45 | 63 | 0.0 | 0.0 | 0.00 | 0.00 | 0.00 | 89 | 1014.6 |
| 20260507031506 | 45 | 62 | 0.0 | 0.0 | 0.00 | 0.00 | 0.00 | 88 | 1014.7 |
| 20260507030006 | 46 | 63 | 0.0 | 0.0 | 0.00 | 0.00 | 0.00 | 86 | 1014.8 |
| 20260507024504 | 46 | 63 | 0.0 | 0.0 | 0.00 | 0.00 | 0.00 | 84 | 1014.8 |
| 20260507023003 | 47 | 63 | 0.0 | 0.0 | 0.00 | 0.00 | 0.00 | 83 | 1014.8 |
| 20260507021504 | 48 | 63 | 0.0 | 0.0 | 0.00 | 0.00 | 0.00 | 82 | 1014.6 |
| 20260507020104 | 48 | 62 | 0.0 | 0.0 | 0.00 | 0.00 | 0.00 | 80 | 1014.5 |
| 20260507014607 | 49 | 62 | 0.0 | 0.0 | 0.00 | 0.00 | 0.00 | 80 | 1014.2 |
| 20260507013056 | 50 | 63 | 0.0 | 0.0 | 0.00 | 0.00 | 0.00 | 78 | 1014.1 |
| 20260507011603 | 50 | 63 | 0.0 | 0.0 | 0.00 | 0.00 | 0.00 | 78 | 1014.1 |
| 20260507010056 | 51 | 63 | 0.0 | 0.0 | 0.00 | 0.00 | 0.00 | 76 | 1014.0 |
| 20260507004553 | 51 | 62 | 0.0 | 0.0 | 0.00 | 0.00 | 0.00 | 72 | 1014.0 |
| 20260507003052 | 52 | 63 | 0.0 | 0.0 | 0.00 | 0.00 | 0.00 | 69 | 1013.6 |
| 20260507001606 | 52 | 62 | 0.0 | 0.0 | 0.00 | 0.00 | 0.00 | 67 | 1013.4 |
| 20260507000057 | 53 | 63 | 0.0 | 0.0 | 0.00 | 0.00 | 0.00 | 67 | 1013.3 |
| 20260506234549 | 54 | 63 | 0.0 | 1.0 | 0.00 | 0.00 | 0.00 | 65 | 1013.4 |
| 20260506233049 | 54 | 88 | 0.0 | 1.0 | 0.00 | 0.00 | 0.00 | 62 | 1013.1 |
| 20260506231549 | 55 | 24 | 0.0 | 5.0 | 0.00 | 0.00 | 0.00 | 60 | 1013.2 |
| 20260506230052 | 55 | 288 | 0.0 | 0.0 | 0.00 | 0.00 | 0.00 | 59 | 1013.2 |
| 20260506224548 | 55 | 256 | 0.0 | 1.0 | 0.00 | 0.00 | 0.00 | 59 | 1013.4 |
| 20260506223047 | 55 | 233 | 0.0 | 1.0 | 0.00 | 0.00 | 0.00 | 59 | 1013.5 |
| 20260506221546 | 55 | 234 | 0.0 | 0.0 | 0.00 | 0.00 | 0.00 | 58 | 1013.6 |
| 20260506220057 | 56 | 235 | 0.0 | 1.0 | 0.00 | 0.00 | 0.00 | 62 | 1013.7 |
| 20260506214546 | 56 | 235 | 0.0 | 1.0 | 0.00 | 0.00 | 0.00 | 59 | 1013.5 |
| 20260506213044 | 56 | 226 | 0.0 | 1.0 | 0.00 | 0.00 | 0.00 | 59 | 1013.3 |
| 20260506211542 | 56 | 226 | 0.0 | 1.0 | 0.00 | 0.00 | 0.00 | 59 | 1013.2 |
| 20260506210041 | 56 | 140 | 0.0 | 0.0 | 0.00 | 0.00 | 0.00 | 59 | 1013.0 |
| 20260506204540 | 56 | 140 | 0.0 | 1.0 | 0.00 | 0.00 | 0.00 | 59 | 1013.0 |
| 20260506203113 | 56 | 25 | 0.0 | 1.0 | 0.00 | 0.00 | 0.00 | 57 | 1013.0 |
| 20260506201539 | 57 | 357 | 0.0 | 1.0 | 0.00 | 0.00 | 0.00 | 56 | 1013.1 |
| 20260506200046 | 57 | 282 | 0.0 | 1.0 | 0.00 | 0.00 | 0.00 | 58 | 1013.0 |
| 20260506194538 | 57 | 297 | 0.0 | 1.0 | 0.00 | 0.00 | 0.00 | 57 | 1012.9 |
| 20260506193037 | 57 | 323 | 0.0 | 3.0 | 0.00 | 0.00 | 0.00 | 56 | 1012.6 |
| 20260506191537 | 57 | 303 | 0.0 | 2.0 | 0.00 | 0.00 | 0.00 | 55 | 1012.7 |
| 20260506190045 | 58 | 273 | 0.0 | 1.0 | 0.00 | 0.00 | 0.00 | 59 | 1012.7 |
| 20260506184543 | 58 | 264 | 0.0 | 2.0 | 0.00 | 0.00 | 0.00 | 58 | 1012.6 |
| 20260506183036 | 59 | 295 | 0.0 | 7.0 | 0.00 | 0.00 | 0.00 | 54 | 1012.6 |
| 20260506181534 | 59 | 38 | 1.0 | 4.0 | 0.00 | 0.00 | 0.00 | 56 | 1012.4 |
| 20260506180036 | 59 | 312 | 0.0 | 2.0 | 0.00 | 0.00 | 0.00 | 58 | 1012.6 |
| 20260506174531 | 59 | 276 | 0.0 | 2.0 | 0.00 | 0.00 | 0.00 | 57 | 1012.7 |
| 20260506173037 | 58 | 45 | 0.0 | 4.0 | 0.00 | 0.00 | 0.00 | 56 | 1012.8 |
| 20260506171528 | 58 | 330 | 0.0 | 2.0 | 0.00 | 0.00 | 0.00 | 57 | 1012.9 |
| 20260506170027 | 58 | 291 | 0.0 | 2.0 | 0.00 | 0.00 | 0.00 | 58 | 1012.9 |
| 20260506164524 | 57 | 355 | 0.0 | 4.0 | 0.00 | 0.00 | 0.00 | 59 | 1013.0 |
| 20260506163039 | 57 | 34 | 0.0 | 2.0 | 0.00 | 0.00 | 0.00 | 64 | 1012.7 |
| 20260506161526 | 57 | 79 | 1.0 | 5.0 | 0.00 | 0.00 | 0.00 | 64 | 1012.8 |
| 20260506160021 | 57 | 60 | 0.0 | 3.0 | 0.00 | 0.00 | 0.00 | 66 | 1012.7 |